,,,PA_Meas_PMT16A,,PR_Meas_QMR101_102,,RH_Meas_QMH101,,SR_Meas_QMS101,,TA_Meas_QMH101,,GenWind,,GenWind,
date,time,status,PA,status,PR,status,RH,status,SR,status,TA,status,DirAvg,status,SpdAvg,
2009-03-24, 00:00:05,VALID,1001.93,VALID,0,VALID,90.5941,VALID,0,VALID,24.0933,VALID,17,VALID,1.19062,
2009-03-24, 00:01:05,VALID,1001.9,VALID,0,VALID,90.6323,VALID,0,VALID,24.0738,VALID,17,VALID,0.892969,
2009-03-24, 00:02:05,VALID,1001.88,VALID,0,VALID,90.7772,VALID,0,VALID,24.0543,VALID,17,VALID,0.518359,
2009-03-24, 00:03:05,VALID,1001.89,VALID,0,VALID,90.9069,VALID,0,VALID,24.0348,VALID,17,VALID,0.455469,
2009-03-24, 00:04:05,VALID,1001.83,VALID,0,VALID,91.0519,VALID,0,VALID,24.0153,VALID,17,VALID,0.30625,
2009-03-24, 00:05:05,VALID,1001.83,VALID,0,VALID,91.0366,VALID,0,VALID,24.0153,VALID,17,VALID,0.301172,
2009-03-24, 00:06:05,VALID,1001.8,VALID,0,VALID,91.1129,VALID,0,VALID,23.9957,VALID,17,VALID,0.233594,
2009-03-24, 00:07:05,VALID,1001.77,VALID,0,VALID,91.1206,VALID,0,VALID,23.9762,VALID,17,VALID,0.455469,
2009-03-24, 00:08:05,VALID,1001.71,VALID,0,VALID,91.0824,VALID,0,VALID,23.9744,VALID,17,VALID,0.355078,
2009-03-24, 00:09:05,VALID,1001.71,VALID,0,VALID,91.1892,VALID,0,VALID,23.9762,VALID,17,VALID,0.321094,
2009-03-24, 00:10:05,VALID,1001.69,VALID,0,VALID,91.174,VALID,0,VALID,23.9762,VALID,17,VALID,0.212891,
2009-03-24, 00:11:05,VALID,1001.68,VALID,0,VALID,91.1816,VALID,0,VALID,23.9762,VALID,17,VALID,0.0347656,
2009-03-24, 00:12:05,VALID,1001.64,VALID,0,VALID,91.2808,VALID,0,VALID,23.9549,VALID,17,VALID,0.0632813,
2009-03-24, 00:13:05,VALID,1001.63,VALID,0,VALID,91.235,VALID,0,VALID,23.9567,VALID,17,VALID,0,
2009-03-24, 00:14:05,VALID,1001.62,VALID,0,VALID,91.3113,VALID,0,VALID,23.9762,VALID,17,VALID,0,
2009-03-24, 00:15:05,VALID,1001.62,VALID,0,VALID,91.3876,VALID,0,VALID,23.9957,VALID,17,VALID,0.003125,
2009-03-24, 00:16:05,VALID,1001.62,VALID,0,VALID,91.3876,VALID,0,VALID,23.9957,VALID,17,VALID,0,
2009-03-24, 00:17:05,VALID,1001.59,VALID,0,VALID,91.4791,VALID,0,VALID,23.9957,VALID,17,VALID,0,
2009-03-24, 00:18:05,VALID,1001.61,VALID,0,VALID,91.3723,VALID,0,VALID,23.9957,VALID,17,VALID,0.348047,
2009-03-24, 00:19:05,VALID,1001.59,VALID,0,VALID,91.296,VALID,0,VALID,23.9549,VALID,17,VALID,0.278906,
2009-03-24, 00:20:05,VALID,1001.55,VALID,0,VALID,91.2045,VALID,0,VALID,23.9762,VALID,23,VALID,0.300781,
2009-03-24, 00:21:05,VALID,1001.51,VALID,0,VALID,91.1587,VALID,0,VALID,23.9567,VALID,23,VALID,0.236719,
2009-03-24, 00:22:05,VALID,1001.52,VALID,0,VALID,91.2045,VALID,0,VALID,23.9177,VALID,23,VALID,0,
2009-03-24, 00:23:05,VALID,1001.45,VALID,0,VALID,91.3571,VALID,0,VALID,23.939,VALID,23,VALID,0.2875,
2009-03-24, 00:24:05,VALID,1001.46,VALID,0,VALID,91.4715,VALID,0,VALID,23.9177,VALID,109,VALID,0.930859,
2009-03-24, 00:25:05,VALID,1001.42,VALID,0,VALID,91.2503,VALID,0,VALID,23.9372,VALID,99,VALID,0.752344,
2009-03-24, 00:26:05,VALID,1001.44,VALID,0,VALID,91.174,VALID,0,VALID,23.9762,VALID,111,VALID,0.476172,
2009-03-24, 00:27:05,VALID,1001.39,VALID,0,VALID,91.0519,VALID,0,VALID,23.9957,VALID,112,VALID,0.215625,
2009-03-24, 00:28:05,VALID,1001.4,VALID,0,VALID,91.0824,VALID,0,VALID,24.0366,VALID,112,VALID,0.0824219,
2009-03-24, 00:29:05,VALID,1001.33,VALID,0,VALID,91.0366,VALID,0,VALID,23.9957,VALID,112,VALID,0.212891,
2009-03-24, 00:30:05,VALID,1001.32,VALID,0,VALID,91.029,VALID,0,VALID,23.9976,VALID,112,VALID,0,
2009-03-24, 00:31:05,VALID,1001.28,VALID,0,VALID,91.1816,VALID,0,VALID,23.9976,VALID,102,VALID,0.555469,
2009-03-24, 00:32:05,VALID,1001.24,VALID,0,VALID,91.1358,VALID,0,VALID,23.9957,VALID,86,VALID,0.430859,
2009-03-24, 00:33:05,VALID,1001.2,VALID,0,VALID,91.1129,VALID,0,VALID,23.9762,VALID,86,VALID,0.00195313,
2009-03-24, 00:34:05,VALID,1001.19,VALID,0,VALID,91.0671,VALID,0,VALID,23.9762,VALID,86,VALID,0,
2009-03-24, 00:35:05,VALID,1001.18,VALID,0,VALID,91.09,VALID,0,VALID,23.9567,VALID,86,VALID,0.263672,
2009-03-24, 00:36:05,VALID,1001.19,VALID,0,VALID,91.1358,VALID,0,VALID,23.939,VALID,76,VALID,0.319922,
2009-03-24, 00:37:05,VALID,1001.18,VALID,0,VALID,91.2426,VALID,0,VALID,23.9177,VALID,31,VALID,0.5625,
2009-03-24, 00:38:05,VALID,1001.2,VALID,0,VALID,91.0214,VALID,0,VALID,23.8982,VALID,31,VALID,0.525781,
2009-03-24, 00:39:05,VALID,1001.18,VALID,0,VALID,91.0061,VALID,0,VALID,23.8609,VALID,31,VALID,0.595312,
2009-03-24, 00:40:05,VALID,1001.14,VALID,0,VALID,90.7391,VALID,0,VALID,23.8219,VALID,40,VALID,0.844141,
2009-03-24, 00:41:05,VALID,1001.13,VALID,0,VALID,90.5178,VALID,0,VALID,23.7811,VALID,55,VALID,0.627344,
2009-03-24, 00:42:05,VALID,1001.13,VALID,0,VALID,90.3957,VALID,0,VALID,23.8024,VALID,55,VALID,0.287109,
2009-03-24, 00:43:05,VALID,1001.11,VALID,0,VALID,90.2279,VALID,0,VALID,23.7811,VALID,55,VALID,0.191016,
2009-03-24, 00:44:05,VALID,1001.06,VALID,0,VALID,90.4263,VALID,0,VALID,23.8024,VALID,55,VALID,0.241016,
2009-03-24, 00:45:05,VALID,1001.05,VALID,0,VALID,90.6094,VALID,0,VALID,23.8219,VALID,55,VALID,0.367969,
2009-03-24, 00:46:05,VALID,1001.03,VALID,0,VALID,90.6704,VALID,0,VALID,23.8219,VALID,54,VALID,0.290234,
2009-03-24, 00:47:05,VALID,1001,VALID,0,VALID,90.7085,VALID,0,VALID,23.8024,VALID,54,VALID,0.283984,
2009-03-24, 00:48:05,VALID,1000.98,VALID,0,VALID,90.7085,VALID,0,VALID,23.8024,VALID,54,VALID,0.185156,
2009-03-24, 00:49:05,VALID,1000.95,VALID,0,VALID,90.7314,VALID,0,VALID,23.7616,VALID,54,VALID,0.334766,
2009-03-24, 00:50:05,VALID,1000.94,VALID,0,VALID,90.8383,VALID,0,VALID,23.7243,VALID,53,VALID,0.486328,
2009-03-24, 00:51:05,VALID,1000.95,VALID,0,VALID,90.8917,VALID,0,VALID,23.6853,VALID,37,VALID,0.577734,
2009-03-24, 00:52:05,VALID,1000.9,VALID,0,VALID,91.1892,VALID,0,VALID,23.6054,VALID,21,VALID,0.620703,
2009-03-24, 00:53:05,VALID,1000.88,VALID,0,VALID,91.586,VALID,0,VALID,23.6054,VALID,21,VALID,0.731641,
2009-03-24, 00:54:05,VALID,1000.9,VALID,0,VALID,91.5936,VALID,0,VALID,23.6072,VALID,21,VALID,0.836719,
2009-03-24, 00:55:05,VALID,1000.88,VALID,0,VALID,91.5783,VALID,0,VALID,23.5664,VALID,21,VALID,0.913672,
2009-03-24, 00:56:05,VALID,1000.87,VALID,0,VALID,91.7157,VALID,0,VALID,23.5274,VALID,21,VALID,1.13398,
2009-03-24, 00:57:05,VALID,1000.85,VALID,0,VALID,91.5936,VALID,0,VALID,23.5469,VALID,21,VALID,1.04531,
2009-03-24, 00:58:05,VALID,1000.85,VALID,0,VALID,91.4563,VALID,0,VALID,23.5097,VALID,24,VALID,1.3082,
2009-03-24, 00:59:05,VALID,1000.88,VALID,0,VALID,91.5249,VALID,0,VALID,23.4688,VALID,31,VALID,1.28398,
2009-03-24, 01:00:05,VALID,1000.88,VALID,0,VALID,91.6165,VALID,0,VALID,23.4493,VALID,34,VALID,1.19883,
2009-03-24, 01:01:05,VALID,1000.9,VALID,0,VALID,91.8072,VALID,0,VALID,23.4298,VALID,35,VALID,1.23125,
2009-03-24, 01:02:05,VALID,1000.88,VALID,0,VALID,91.9217,VALID,0,VALID,23.4298,VALID,39,VALID,1.20078,
2009-03-24, 01:03:05,VALID,1000.89,VALID,0,VALID,91.9217,VALID,0,VALID,23.4493,VALID,39,VALID,1.04297,
2009-03-24, 01:04:05,VALID,1000.85,VALID,0,VALID,91.853,VALID,0,VALID,23.4493,VALID,39,VALID,1.01289,
2009-03-24, 01:05:05,VALID,1000.88,VALID,0,VALID,91.9522,VALID,0,VALID,23.4298,VALID,39,VALID,0.951953,
2009-03-24, 01:06:05,VALID,1000.89,VALID,0,VALID,91.9445,VALID,0,VALID,23.4298,VALID,39,VALID,1.00195,
2009-03-24, 01:07:05,VALID,1000.87,VALID,0,VALID,91.9598,VALID,0,VALID,23.4085,VALID,39,VALID,0.930469,
2009-03-24, 01:08:05,VALID,1000.84,VALID,0,VALID,91.9522,VALID,0,VALID,23.4493,VALID,49,VALID,1.04922,
2009-03-24, 01:09:05,VALID,1000.84,VALID,0,VALID,91.8911,VALID,0,VALID,23.4493,VALID,51,VALID,1.08086,
2009-03-24, 01:10:05,VALID,1000.85,VALID,0,VALID,91.8454,VALID,0,VALID,23.4298,VALID,58,VALID,0.883594,
2009-03-24, 01:11:05,VALID,1000.86,VALID,0,VALID,91.8606,VALID,0,VALID,23.4085,VALID,58,VALID,0.607813,
2009-03-24, 01:12:05,VALID,1000.84,VALID,0,VALID,91.9445,VALID,0,VALID,23.4298,VALID,58,VALID,0.294922,
2009-03-24, 01:13:05,VALID,1000.85,VALID,0,VALID,91.9598,VALID,0,VALID,23.389,VALID,58,VALID,0.0691406,
2009-03-24, 01:14:05,VALID,1000.85,VALID,0,VALID,91.8759,VALID,0,VALID,23.3908,VALID,58,VALID,0.00507812,
2009-03-24, 01:15:05,VALID,1000.84,VALID,0,VALID,91.8835,VALID,0,VALID,23.3305,VALID,58,VALID,0,
2009-03-24, 01:16:05,VALID,1000.85,VALID,0,VALID,92.0971,VALID,0,VALID,23.3305,VALID,58,VALID,0,
2009-03-24, 01:17:05,VALID,1000.88,VALID,0,VALID,92.4328,VALID,0,VALID,23.3323,VALID,29,VALID,0.759375,
2009-03-24, 01:18:05,VALID,1000.88,VALID,0,VALID,92.6694,VALID,0,VALID,23.3713,VALID,21,VALID,0.863281,
2009-03-24, 01:19:05,VALID,1000.91,VALID,0,VALID,92.6312,VALID,0,VALID,23.3908,VALID,21,VALID,0.960547,
2009-03-24, 01:20:05,VALID,1000.91,VALID,0,VALID,92.3947,VALID,0,VALID,23.4103,VALID,26,VALID,1.28359,
2009-03-24, 01:21:05,VALID,1000.88,VALID,0,VALID,92.4786,VALID,0,VALID,23.3908,VALID,34,VALID,1.27539,
2009-03-24, 01:22:05,VALID,1000.9,VALID,0,VALID,92.5778,VALID,0,VALID,23.3518,VALID,39,VALID,1.21211,
2009-03-24, 01:23:05,VALID,1000.89,VALID,0,VALID,92.6999,VALID,0,VALID,23.3518,VALID,43,VALID,0.904688,
2009-03-24, 01:24:05,VALID,1000.88,VALID,0,VALID,92.7609,VALID,0,VALID,23.311,VALID,43,VALID,0.414063,
2009-03-24, 01:25:05,VALID,1000.84,VALID,0,VALID,92.8906,VALID,0,VALID,23.3127,VALID,43,VALID,0,
2009-03-24, 01:26:05,VALID,1000.85,VALID,0,VALID,93.0203,VALID,0,VALID,23.295,VALID,43,VALID,0.021875,
2009-03-24, 01:27:05,VALID,1000.8,VALID,0,VALID,93.1882,VALID,0,VALID,23.3127,VALID,43,VALID,0.0046875,
2009-03-24, 01:28:05,VALID,1000.81,VALID,0,VALID,93.15,VALID,0,VALID,23.3127,VALID,43,VALID,0.314453,
2009-03-24, 01:29:05,VALID,1000.8,VALID,0,VALID,93.2416,VALID,0,VALID,23.2932,VALID,43,VALID,0.511328,
2009-03-24, 01:30:05,VALID,1000.81,VALID,0,VALID,93.3331,VALID,0,VALID,23.2915,VALID,36,VALID,0.704687,
2009-03-24, 01:31:05,VALID,1000.84,VALID,0,VALID,93.2645,VALID,0,VALID,23.2915,VALID,42,VALID,0.976563,
2009-03-24, 01:32:05,VALID,1000.85,VALID,0,VALID,93.1577,VALID,0,VALID,23.3518,VALID,53,VALID,0.993359,
2009-03-24, 01:33:05,VALID,1000.86,VALID,0,VALID,92.6694,VALID,0,VALID,23.311,VALID,46,VALID,1.11289,
2009-03-24, 01:34:05,VALID,1000.83,VALID,0,VALID,92.5473,VALID,0,VALID,23.3127,VALID,25,VALID,1.01211,
2009-03-24, 01:35:05,VALID,1000.83,VALID,0,VALID,92.5397,VALID,0,VALID,23.2932,VALID,21,VALID,0.863672,
2009-03-24, 01:36:05,VALID,1000.83,VALID,0,VALID,92.4939,VALID,0,VALID,23.2524,VALID,21,VALID,0.701953,
2009-03-24, 01:37:05,VALID,1000.8,VALID,0,VALID,92.4786,VALID,0,VALID,23.2542,VALID,21,VALID,0.512891,
2009-03-24, 01:38:05,VALID,1000.81,VALID,0,VALID,92.5549,VALID,0,VALID,23.2347,VALID,21,VALID,0.471875,
2009-03-24, 01:39:05,VALID,1000.84,VALID,0,VALID,92.5854,VALID,0,VALID,23.2152,VALID,21,VALID,0.421875,
2009-03-24, 01:40:05,VALID,1000.85,VALID,0,VALID,92.6541,VALID,0,VALID,23.2134,VALID,21,VALID,0.299219,
2009-03-24, 01:41:05,VALID,1000.87,VALID,0,VALID,92.6617,VALID,0,VALID,23.1957,VALID,21,VALID,0.04375,
2009-03-24, 01:42:05,VALID,1000.84,VALID,0,VALID,92.677,VALID,0,VALID,23.1957,VALID,21,VALID,0,
2009-03-24, 01:43:05,VALID,1000.85,VALID,0,VALID,92.6999,VALID,0,VALID,23.1762,VALID,21,VALID,0.246875,
2009-03-24, 01:44:05,VALID,1000.81,VALID,0,VALID,92.8983,VALID,0,VALID,23.1566,VALID,21,VALID,0.376953,
2009-03-24, 01:45:05,VALID,1000.82,VALID,0,VALID,92.9211,VALID,0,VALID,23.1371,VALID,21,VALID,0.0527344,
2009-03-24, 01:46:05,VALID,1000.79,VALID,0,VALID,92.9059,VALID,0,VALID,23.1371,VALID,21,VALID,0,
2009-03-24, 01:47:05,VALID,1000.81,VALID,0,VALID,93.028,VALID,0,VALID,23.1354,VALID,21,VALID,0,
2009-03-24, 01:48:05,VALID,1000.84,VALID,0,VALID,93.1195,VALID,0,VALID,23.1354,VALID,21,VALID,0,
2009-03-24, 01:49:05,VALID,1000.79,VALID,0,VALID,93.1805,VALID,0,VALID,23.1354,VALID,21,VALID,0.0792969,
2009-03-24, 01:50:05,VALID,1000.8,VALID,0,VALID,93.2645,VALID,0,VALID,23.1762,VALID,65,VALID,0.589844,
2009-03-24, 01:51:05,VALID,1000.82,VALID,0,VALID,93.0203,VALID,0,VALID,23.1744,VALID,78,VALID,0.7,
2009-03-24, 01:52:05,VALID,1000.82,VALID,0,VALID,93.15,VALID,0,VALID,23.1939,VALID,50,VALID,0.604297,
2009-03-24, 01:53:05,VALID,1000.86,VALID,0,VALID,92.7228,VALID,0,VALID,23.2152,VALID,351,VALID,0.805078,
2009-03-24, 01:54:05,VALID,1000.87,VALID,0,VALID,92.8143,VALID,0,VALID,23.1939,VALID,300,VALID,1.0707,
2009-03-24, 01:55:05,VALID,1000.85,VALID,0,VALID,92.9364,VALID,0,VALID,23.1939,VALID,289,VALID,0.575,
2009-03-24, 01:56:05,VALID,1000.83,VALID,0,VALID,92.9974,VALID,0,VALID,23.2134,VALID,289,VALID,0.00234375,
2009-03-24, 01:57:05,VALID,1000.78,VALID,0,VALID,93.0356,VALID,0,VALID,23.2134,VALID,334,VALID,0.998047,
2009-03-24, 01:58:05,VALID,1000.77,VALID,0,VALID,92.7838,VALID,0,VALID,23.2524,VALID,100,VALID,1.17891,
2009-03-24, 01:59:05,VALID,1000.8,VALID,0,VALID,92.4405,VALID,0,VALID,23.2932,VALID,105,VALID,0.917188,
2009-03-24, 02:00:05,VALID,1000.8,VALID,0,VALID,92.3184,VALID,0,VALID,23.3127,VALID,109,VALID,0.391797,
2009-03-24, 02:01:05,VALID,1000.83,VALID,0,VALID,92.2497,VALID,0,VALID,23.2915,VALID,114,VALID,0,
2009-03-24, 02:02:04,VALID,1000.8,VALID,0,VALID,92.1811,VALID,0,VALID,23.2915,VALID,114,VALID,0,
2009-03-24, 02:03:04,VALID,1000.77,VALID,0,VALID,92.2574,VALID,0,VALID,23.3323,VALID,95,VALID,0.00195313,
2009-03-24, 02:04:04,VALID,1000.72,VALID,0,VALID,92.2345,VALID,0,VALID,23.311,VALID,87,VALID,0,
2009-03-24, 02:05:04,VALID,1000.68,VALID,0,VALID,92.0895,VALID,0,VALID,23.3908,VALID,88,VALID,0.00429688,
2009-03-24, 02:06:04,VALID,1000.64,VALID,0,VALID,91.7385,VALID,0,VALID,23.4493,VALID,95,VALID,0.135937,
2009-03-24, 02:07:04,VALID,1000.65,VALID,0,VALID,91.3876,VALID,0,VALID,23.5061,VALID,101,VALID,1.02578,
2009-03-24, 02:08:04,VALID,1000.62,VALID,0,VALID,91.0137,VALID,0,VALID,23.5451,VALID,104,VALID,0.980078,
2009-03-24, 02:09:04,VALID,1000.63,VALID,0,VALID,90.8383,VALID,0,VALID,23.5841,VALID,140,VALID,1.1543,
2009-03-24, 02:10:04,VALID,1000.61,VALID,0,VALID,90.8383,VALID,0,VALID,23.6036,VALID,115,VALID,1.37812,
2009-03-24, 02:11:04,VALID,1000.62,VALID,0,VALID,90.7238,VALID,0,VALID,23.664,VALID,111,VALID,0.772656,
2009-03-24, 02:12:04,VALID,1000.59,VALID,0,VALID,90.5636,VALID,0,VALID,23.6835,VALID,129,VALID,0.294922,
2009-03-24, 02:13:04,VALID,1000.59,VALID,0,VALID,90.5712,VALID,0,VALID,23.664,VALID,223,VALID,0.400781,
2009-03-24, 02:14:04,VALID,1000.56,VALID,0,VALID,90.5865,VALID,0,VALID,23.6835,VALID,223,VALID,0.0253906,
2009-03-24, 02:15:04,VALID,1000.53,VALID,0,VALID,90.5254,VALID,0,VALID,23.664,VALID,223,VALID,0.200781,
2009-03-24, 02:16:04,VALID,1000.54,VALID,0,VALID,90.5407,VALID,0,VALID,23.6445,VALID,223,VALID,0.242969,
2009-03-24, 02:17:04,VALID,1000.48,VALID,0,VALID,90.7696,VALID,0,VALID,23.6054,VALID,223,VALID,0.00546875,
2009-03-24, 02:18:04,VALID,1000.49,VALID,0,VALID,90.9298,VALID,0,VALID,23.6054,VALID,218,VALID,0.352344,
2009-03-24, 02:19:04,VALID,1000.51,VALID,0,VALID,90.968,VALID,0,VALID,23.5646,VALID,133,VALID,0.500391,
2009-03-24, 02:20:04,VALID,1000.49,VALID,0,VALID,90.9756,VALID,0,VALID,23.5646,VALID,78,VALID,0.755469,
2009-03-24, 02:21:04,VALID,1000.51,VALID,0,VALID,91.0977,VALID,0,VALID,23.5646,VALID,77,VALID,0.742578,
2009-03-24, 02:22:04,VALID,1000.54,VALID,0,VALID,91.2808,VALID,0,VALID,23.5841,VALID,87,VALID,0.976172,
2009-03-24, 02:23:04,VALID,1000.53,VALID,0,VALID,91.235,VALID,0,VALID,23.6054,VALID,97,VALID,0.353516,
2009-03-24, 02:24:04,VALID,1000.52,VALID,0,VALID,91.2121,VALID,0,VALID,23.6054,VALID,97,VALID,0.389453,
2009-03-24, 02:25:04,VALID,1000.5,VALID,0,VALID,91.1892,VALID,0,VALID,23.5664,VALID,97,VALID,0.0503906,
2009-03-24, 02:26:04,VALID,1000.49,VALID,0,VALID,91.1282,VALID,0,VALID,23.5469,VALID,97,VALID,0.227734,
2009-03-24, 02:27:04,VALID,1000.52,VALID,0,VALID,91.235,VALID,0,VALID,23.5079,VALID,97,VALID,0.352344,
2009-03-24, 02:28:04,VALID,1000.5,VALID,0,VALID,91.3037,VALID,0,VALID,23.4688,VALID,97,VALID,0.233203,
2009-03-24, 02:29:04,VALID,1000.44,VALID,0,VALID,91.3647,VALID,0,VALID,23.4493,VALID,97,VALID,0.178906,
2009-03-24, 02:30:04,VALID,1000.43,VALID,0,VALID,91.5936,VALID,0,VALID,23.4493,VALID,97,VALID,0.361328,
2009-03-24, 02:31:04,VALID,1000.42,VALID,0,VALID,91.6928,VALID,0,VALID,23.4493,VALID,97,VALID,0.289063,
2009-03-24, 02:32:04,VALID,1000.43,VALID,0,VALID,91.7385,VALID,0,VALID,23.428,VALID,97,VALID,0.257031,
2009-03-24, 02:33:04,VALID,1000.43,VALID,0,VALID,91.7385,VALID,0,VALID,23.4298,VALID,97,VALID,0.0894531,
2009-03-24, 02:34:04,VALID,1000.42,VALID,0,VALID,91.792,VALID,0,VALID,23.4103,VALID,97,VALID,0,
2009-03-24, 02:35:04,VALID,1000.43,VALID,0,VALID,91.8072,VALID,0,VALID,23.4103,VALID,97,VALID,0,
2009-03-24, 02:36:04,VALID,1000.48,VALID,0,VALID,91.8606,VALID,0,VALID,23.4103,VALID,97,VALID,0,
2009-03-24, 02:37:04,VALID,1000.47,VALID,0,VALID,91.9064,VALID,0,VALID,23.4103,VALID,97,VALID,0,
2009-03-24, 02:38:04,VALID,1000.5,VALID,0,VALID,91.9522,VALID,0,VALID,23.3908,VALID,97,VALID,0.0535156,
2009-03-24, 02:39:04,VALID,1000.48,VALID,0,VALID,91.914,VALID,0,VALID,23.3695,VALID,96,VALID,0.494922,
2009-03-24, 02:40:04,VALID,1000.5,VALID,0,VALID,91.8301,VALID,0,VALID,23.3908,VALID,62,VALID,0.840625,
2009-03-24, 02:41:04,VALID,1000.5,VALID,0,VALID,91.6546,VALID,0,VALID,23.4103,VALID,75,VALID,0.589844,
2009-03-24, 02:42:04,VALID,1000.53,VALID,0,VALID,91.7233,VALID,0,VALID,23.4085,VALID,95,VALID,0.707812,
2009-03-24, 02:43:04,VALID,1000.52,VALID,0,VALID,91.9293,VALID,0,VALID,23.4493,VALID,88,VALID,1.26914,
2009-03-24, 02:44:04,VALID,1000.51,VALID,0,VALID,91.7385,VALID,0,VALID,23.4688,VALID,78,VALID,0.850781,
2009-03-24, 02:45:04,VALID,1000.54,VALID,0,VALID,91.8683,VALID,0,VALID,23.4671,VALID,88,VALID,0.532812,
2009-03-24, 02:46:04,VALID,1000.54,VALID,0,VALID,91.9445,VALID,0,VALID,23.5079,VALID,88,VALID,0.589844,
2009-03-24, 02:47:04,VALID,1000.55,VALID,0,VALID,91.8072,VALID,0,VALID,23.5079,VALID,80,VALID,0.625391,
2009-03-24, 02:48:04,VALID,1000.54,VALID,0,VALID,91.6928,VALID,0,VALID,23.4884,VALID,57,VALID,0.706641,
2009-03-24, 02:49:04,VALID,1000.56,VALID,0,VALID,91.708,VALID,0,VALID,23.4671,VALID,39,VALID,0.796875,
2009-03-24, 02:50:04,VALID,1000.55,VALID,0,VALID,91.7538,VALID,0,VALID,23.428,VALID,37,VALID,0.905078,
2009-03-24, 02:51:04,VALID,1000.55,VALID,0,VALID,91.9064,VALID,0,VALID,23.3908,VALID,31,VALID,0.893359,
2009-03-24, 02:52:04,VALID,1000.56,VALID,0,VALID,92.0361,VALID,0,VALID,23.3518,VALID,24,VALID,0.980859,
2009-03-24, 02:53:04,VALID,1000.57,VALID,0,VALID,92.1658,VALID,0,VALID,23.3323,VALID,24,VALID,0.712109,
2009-03-24, 02:54:04,VALID,1000.58,VALID,0,VALID,92.2803,VALID,0,VALID,23.2932,VALID,24,VALID,0.720703,
2009-03-24, 02:55:04,VALID,1000.58,VALID,0,VALID,92.41,VALID,0,VALID,23.2542,VALID,24,VALID,0.737891,
2009-03-24, 02:56:04,VALID,1000.58,VALID,0,VALID,92.471,VALID,0,VALID,23.2152,VALID,24,VALID,0.616797,
2009-03-24, 02:57:04,VALID,1000.57,VALID,0,VALID,92.532,VALID,0,VALID,23.2152,VALID,24,VALID,0.497656,
2009-03-24, 02:58:04,VALID,1000.57,VALID,0,VALID,92.5854,VALID,0,VALID,23.1762,VALID,24,VALID,0.432422,
2009-03-24, 02:59:04,VALID,1000.55,VALID,0,VALID,92.6541,VALID,0,VALID,23.1762,VALID,24,VALID,0.391406,
2009-03-24, 03:00:04,VALID,1000.54,VALID,0,VALID,92.7609,VALID,0,VALID,23.1762,VALID,24,VALID,0.248047,
2009-03-24, 03:01:04,VALID,1000.56,VALID,0,VALID,92.7838,VALID,0,VALID,23.1566,VALID,24,VALID,0.130469,
2009-03-24, 03:02:04,VALID,1000.57,VALID,0,VALID,92.7838,VALID,0,VALID,23.1371,VALID,24,VALID,0,
2009-03-24, 03:03:04,VALID,1000.59,VALID,0,VALID,92.8143,VALID,0,VALID,23.1371,VALID,24,VALID,0,
2009-03-24, 03:04:04,VALID,1000.6,VALID,0,VALID,92.9135,VALID,0,VALID,23.1159,VALID,24,VALID,0,
2009-03-24, 03:05:04,VALID,1000.62,VALID,0,VALID,92.9517,VALID,0,VALID,23.1176,VALID,24,VALID,0.281641,
2009-03-24, 03:06:04,VALID,1000.6,VALID,0,VALID,93.0203,VALID,0,VALID,23.1176,VALID,24,VALID,0.316016,
2009-03-24, 03:07:04,VALID,1000.67,VALID,0,VALID,93.0814,VALID,0,VALID,23.1176,VALID,24,VALID,0.415234,
2009-03-24, 03:08:04,VALID,1000.7,VALID,0,VALID,93.089,VALID,0,VALID,23.1176,VALID,24,VALID,0.509766,
2009-03-24, 03:09:04,VALID,1000.72,VALID,0,VALID,93.1043,VALID,0,VALID,23.1371,VALID,24,VALID,0.541016,
2009-03-24, 03:10:04,VALID,1000.7,VALID,0,VALID,93.089,VALID,0,VALID,23.1566,VALID,24,VALID,0.628125,
2009-03-24, 03:11:04,VALID,1000.73,VALID,0,VALID,93.0661,VALID,0,VALID,23.1762,VALID,24,VALID,0.557031,
2009-03-24, 03:12:04,VALID,1000.71,VALID,0,VALID,92.9822,VALID,0,VALID,23.2152,VALID,24,VALID,0.555469,
2009-03-24, 03:13:04,VALID,1000.72,VALID,0,VALID,93.0356,VALID,0,VALID,23.2152,VALID,59,VALID,0.772266,
2009-03-24, 03:14:04,VALID,1000.71,VALID,0,VALID,93.1271,VALID,0,VALID,23.2542,VALID,58,VALID,0.662109,
2009-03-24, 03:15:04,VALID,1000.71,VALID,0,VALID,92.9745,VALID,0,VALID,23.2542,VALID,58,VALID,0.216016,
2009-03-24, 03:16:04,VALID,1000.71,VALID,0,VALID,92.7991,VALID,0,VALID,23.2737,VALID,58,VALID,0.00117188,
2009-03-24, 03:17:04,VALID,1000.7,VALID,0,VALID,92.7609,VALID,0,VALID,23.2737,VALID,53,VALID,0.3,
2009-03-24, 03:18:04,VALID,1000.68,VALID,0,VALID,92.7685,VALID,0,VALID,23.2737,VALID,31,VALID,0.346094,
2009-03-24, 03:19:04,VALID,1000.72,VALID,0,VALID,92.7991,VALID,0,VALID,23.2737,VALID,31,VALID,0.286328,
2009-03-24, 03:20:04,VALID,1000.7,VALID,0,VALID,92.8296,VALID,0,VALID,23.2719,VALID,31,VALID,0.453516,
2009-03-24, 03:21:04,VALID,1000.73,VALID,0,VALID,92.8372,VALID,0,VALID,23.2932,VALID,31,VALID,0.538281,
2009-03-24, 03:22:04,VALID,1000.74,VALID,0,VALID,92.822,VALID,0,VALID,23.2915,VALID,31,VALID,0.835938,
2009-03-24, 03:23:04,VALID,1000.79,VALID,0,VALID,92.8525,VALID,0,VALID,23.2932,VALID,31,VALID,0.888281,
2009-03-24, 03:24:04,VALID,1000.8,VALID,0,VALID,92.8525,VALID,0,VALID,23.2932,VALID,31,VALID,0.923437,
2009-03-24, 03:25:04,VALID,1000.82,VALID,0,VALID,92.8677,VALID,0,VALID,23.2737,VALID,23,VALID,0.951563,
2009-03-24, 03:26:04,VALID,1000.81,VALID,0,VALID,92.7685,VALID,0,VALID,23.2542,VALID,22,VALID,0.986719,
2009-03-24, 03:27:04,VALID,1000.84,VALID,0,VALID,92.7762,VALID,0,VALID,23.2347,VALID,21,VALID,1.05156,
2009-03-24, 03:28:04,VALID,1000.82,VALID,0,VALID,92.6999,VALID,0,VALID,23.1549,VALID,21,VALID,0.973047,
2009-03-24, 03:29:04,VALID,1000.82,VALID,0,VALID,92.8754,VALID,0,VALID,23.1371,VALID,22,VALID,0.953125,
2009-03-24, 03:30:04,VALID,1000.84,VALID,0,VALID,92.883,VALID,0,VALID,23.1371,VALID,19,VALID,0.808203,
2009-03-24, 03:31:04,VALID,1000.81,VALID,0,VALID,92.8754,VALID,0,VALID,23.0981,VALID,18,VALID,0.803906,
2009-03-24, 03:32:04,VALID,1000.82,VALID,0,VALID,92.9593,VALID,0,VALID,23.0981,VALID,18,VALID,0.939844,
2009-03-24, 03:33:04,VALID,1000.82,VALID,0,VALID,92.9745,VALID,0,VALID,23.0981,VALID,18,VALID,0.903516,
2009-03-24, 03:34:04,VALID,1000.82,VALID,0,VALID,92.9364,VALID,0,VALID,23.0981,VALID,20,VALID,0.812109,
2009-03-24, 03:35:04,VALID,1000.8,VALID,0,VALID,92.9135,VALID,0,VALID,23.1176,VALID,24,VALID,0.832031,
2009-03-24, 03:36:04,VALID,1000.81,VALID,0,VALID,92.9135,VALID,0,VALID,23.1176,VALID,27,VALID,0.916797,
2009-03-24, 03:37:04,VALID,1000.84,VALID,0,VALID,92.9135,VALID,0,VALID,23.0981,VALID,27,VALID,1.01914,
2009-03-24, 03:38:04,VALID,1000.85,VALID,0,VALID,92.8677,VALID,0,VALID,23.0981,VALID,27,VALID,1.14453,
2009-03-24, 03:39:04,VALID,1000.82,VALID,0,VALID,92.9822,VALID,0,VALID,23.0769,VALID,28,VALID,1.32969,
2009-03-24, 03:40:04,VALID,1000.83,VALID,0,VALID,93.0966,VALID,0,VALID,23.0769,VALID,33,VALID,1.43008,
2009-03-24, 03:41:04,VALID,1000.82,VALID,0,VALID,92.9745,VALID,0,VALID,23.0769,VALID,33,VALID,1.10117,
2009-03-24, 03:42:04,VALID,1000.84,VALID,0,VALID,92.944,VALID,0,VALID,23.0786,VALID,46,VALID,0.850391,
2009-03-24, 03:43:04,VALID,1000.83,VALID,0,VALID,93.0585,VALID,0,VALID,23.0573,VALID,53,VALID,0.841016,
2009-03-24, 03:44:04,VALID,1000.85,VALID,0,VALID,93.0966,VALID,0,VALID,23.0786,VALID,66,VALID,0.587891,
2009-03-24, 03:45:04,VALID,1000.84,VALID,0,VALID,93.1348,VALID,0,VALID,23.0591,VALID,67,VALID,0.509766,
2009-03-24, 03:46:04,VALID,1000.81,VALID,0,VALID,93.1729,VALID,0,VALID,23.0591,VALID,58,VALID,0.687891,
2009-03-24, 03:47:04,VALID,1000.81,VALID,0,VALID,93.1424,VALID,0,VALID,23.0378,VALID,54,VALID,0.507031,